,,,PA_Meas_PMT16A,,PR_Meas_QMR101_102,,RH_Meas_QMH101,,SR_Meas_QMS101,,TA_Meas_QMH101,,GenWind,,GenWind,
date,time,status,PA,status,PR,status,RH,status,SR,status,TA,status,DirAvg,status,SpdAvg,
2011-09-15, 00:00:04,VALID,1004.19,VALID,0,INVALID,163.624,VALID,0,VALID,26.4297,VALID,40,VALID,0,
2011-09-15, 00:01:04,VALID,1004.15,VALID,0,INVALID,163.594,VALID,0,VALID,26.3128,VALID,23,VALID,0,
2011-09-15, 00:02:04,VALID,1004.16,VALID,0,INVALID,163.601,VALID,0,VALID,26.2134,VALID,33,VALID,0,
2011-09-15, 00:03:04,VALID,1004.11,VALID,0,INVALID,163.594,VALID,0,VALID,26.1355,VALID,13,VALID,0,
2011-09-15, 00:04:04,VALID,1004.16,VALID,0,INVALID,163.556,VALID,0,VALID,26.1765,VALID,29,VALID,0,
2011-09-15, 00:05:04,VALID,1004.2,VALID,0,INVALID,163.594,VALID,0,VALID,26.1375,VALID,36,VALID,0,
2011-09-15, 00:06:04,VALID,1004.2,VALID,0,INVALID,163.601,VALID,0,VALID,26.0771,VALID,31,VALID,0,
2011-09-15, 00:07:04,VALID,1004.26,VALID,0,INVALID,163.639,VALID,0,VALID,26.0187,VALID,36,VALID,0,
2011-09-15, 00:08:04,VALID,1004.25,VALID,0.5,INVALID,163.624,VALID,0,VALID,26.0012,VALID,61,VALID,0,
2011-09-15, 00:09:04,VALID,1004.3,VALID,0,INVALID,163.647,VALID,0,VALID,25.9232,VALID,82,VALID,0,
2011-09-15, 00:10:04,VALID,1004.28,VALID,0.5,INVALID,163.617,VALID,0,VALID,25.8044,VALID,85,VALID,0,
2011-09-15, 00:11:04,VALID,1004.26,VALID,0,INVALID,163.632,VALID,0,VALID,25.7674,VALID,106,VALID,0,
2011-09-15, 00:12:04,VALID,1004.2,VALID,0.5,INVALID,163.647,VALID,0,VALID,25.7304,VALID,62,VALID,0,
2011-09-15, 00:13:04,VALID,1004.13,VALID,0,INVALID,163.678,VALID,0,VALID,25.6506,VALID,32,VALID,0,
2011-09-15, 00:14:04,VALID,1004.11,VALID,0,INVALID,163.639,VALID,0,VALID,25.6136,VALID,24,VALID,0,
2011-09-15, 00:15:04,VALID,1004.07,VALID,0,INVALID,163.662,VALID,0,VALID,25.5727,VALID,27,VALID,0,
2011-09-15, 00:16:04,VALID,1004.01,VALID,0,INVALID,163.662,VALID,0,VALID,25.5532,VALID,10,VALID,0,
2011-09-15, 00:17:04,VALID,1004.03,VALID,0,INVALID,163.647,VALID,0,VALID,25.5123,VALID,63,VALID,0,
2011-09-15, 00:18:04,VALID,1003.99,VALID,0,INVALID,163.639,VALID,0.100563,VALID,25.4714,VALID,21,VALID,0,
2011-09-15, 00:19:04,VALID,1003.95,VALID,0,INVALID,163.655,VALID,0.100563,VALID,25.4734,VALID,7,VALID,0,
2011-09-15, 00:20:04,VALID,1003.95,VALID,0,INVALID,163.685,VALID,0.100563,VALID,25.4734,VALID,34,VALID,0,
2011-09-15, 00:21:04,VALID,1003.94,VALID,0,INVALID,163.678,VALID,0,VALID,25.4948,VALID,23,VALID,0,
2011-09-15, 00:22:04,VALID,1003.96,VALID,0,INVALID,163.678,VALID,0,VALID,25.4734,VALID,47,VALID,0,
2011-09-15, 00:23:04,VALID,1003.99,VALID,0.5,INVALID,163.67,VALID,0.100563,VALID,25.4734,VALID,39,VALID,0,
2011-09-15, 00:24:04,VALID,1004,VALID,0,INVALID,163.655,VALID,0.100563,VALID,25.452,VALID,7,VALID,0,
2011-09-15, 00:25:04,VALID,1004.02,VALID,0,INVALID,163.655,VALID,0.100563,VALID,25.4734,VALID,118,VALID,0,
2011-09-15, 00:26:04,VALID,1004.05,VALID,0,INVALID,163.662,VALID,0.100563,VALID,25.4734,VALID,71,VALID,0,
2011-09-15, 00:27:04,VALID,1004.09,VALID,0,INVALID,163.685,VALID,0.100563,VALID,25.4714,VALID,71,VALID,0,
2011-09-15, 00:28:04,VALID,1004.16,VALID,0,INVALID,163.662,VALID,0.100563,VALID,25.452,VALID,83,VALID,0,
2011-09-15, 00:29:04,VALID,1004.12,VALID,0,INVALID,163.67,VALID,0.100563,VALID,25.5123,VALID,333,VALID,0,
2011-09-15, 00:30:04,VALID,1004.17,VALID,0,INVALID,163.662,VALID,0.100563,VALID,25.5318,VALID,83,VALID,0,
2011-09-15, 00:31:04,VALID,1004.13,VALID,0,INVALID,163.624,VALID,0,VALID,25.5123,VALID,28,VALID,0,
2011-09-15, 00:32:04,VALID,1004.1,VALID,0,INVALID,163.662,VALID,0,VALID,25.5921,VALID,35,VALID,0,
2011-09-15, 00:33:04,VALID,1004.1,VALID,0,INVALID,163.639,VALID,0,VALID,25.6097,VALID,14,VALID,0,
2011-09-15, 00:34:04,VALID,1004.07,VALID,0,INVALID,163.647,VALID,0,VALID,25.6506,VALID,25,VALID,0,
2011-09-15, 00:35:04,VALID,1003.98,VALID,0,INVALID,163.647,VALID,0,VALID,25.6292,VALID,34,VALID,0,
2011-09-15, 00:36:04,VALID,1003.94,VALID,0,INVALID,163.678,VALID,0,VALID,25.6292,VALID,41,VALID,0,
2011-09-15, 00:37:04,VALID,1003.83,VALID,0,INVALID,163.639,VALID,0,VALID,25.67,VALID,19,VALID,0,
2011-09-15, 00:38:04,VALID,1003.73,VALID,0,INVALID,163.632,VALID,0,VALID,25.748,VALID,43,VALID,0,
2011-09-15, 00:39:04,VALID,1003.66,VALID,0,INVALID,163.639,VALID,0,VALID,25.7285,VALID,43,VALID,0,
2011-09-15, 00:40:04,VALID,1003.53,VALID,0,INVALID,163.678,VALID,0,VALID,25.7285,VALID,57,VALID,0,
2011-09-15, 00:41:04,VALID,1003.46,VALID,0,INVALID,163.639,VALID,0,VALID,25.7071,VALID,34,VALID,0,
2011-09-15, 00:42:04,VALID,1003.44,VALID,0,INVALID,163.655,VALID,0,VALID,25.709,VALID,81,VALID,0,
2011-09-15, 00:43:04,VALID,1003.33,VALID,0,INVALID,163.662,VALID,0,VALID,25.7285,VALID,40,VALID,0,
2011-09-15, 00:44:04,VALID,1003.29,VALID,0,INVALID,163.624,VALID,0,VALID,25.709,VALID,23,VALID,0,
2011-09-15, 00:45:04,VALID,1003.25,VALID,0,INVALID,163.639,VALID,0,VALID,25.7304,VALID,89,VALID,0,
2011-09-15, 00:46:04,VALID,1003.28,VALID,0,INVALID,163.67,VALID,0,VALID,25.6895,VALID,59,VALID,0,
2011-09-15, 00:47:04,VALID,1003.21,VALID,0,INVALID,163.662,VALID,0,VALID,25.6895,VALID,39,VALID,0,
2011-09-15, 00:48:04,VALID,1003.24,VALID,0,INVALID,163.632,VALID,0,VALID,25.709,VALID,81,VALID,0,
2011-09-15, 00:49:04,VALID,1003.23,VALID,0,INVALID,163.647,VALID,0,VALID,25.746,VALID,86,VALID,0,
2011-09-15, 00:50:04,VALID,1003.27,VALID,0,INVALID,163.639,VALID,0,VALID,25.7869,VALID,38,VALID,0,
2011-09-15, 00:51:04,VALID,1003.27,VALID,0,INVALID,163.617,VALID,0,VALID,25.7674,VALID,12,VALID,0,
2011-09-15, 00:52:04,VALID,1003.31,VALID,0,INVALID,163.639,VALID,0,VALID,25.748,VALID,97,VALID,0,
2011-09-15, 00:53:04,VALID,1003.36,VALID,0,INVALID,163.647,VALID,0,VALID,25.7265,VALID,68,VALID,0,
2011-09-15, 00:54:04,VALID,1003.44,VALID,0,INVALID,163.647,VALID,0,VALID,25.7071,VALID,63,VALID,0,
2011-09-15, 00:55:04,VALID,1003.47,VALID,0,INVALID,163.617,VALID,0,VALID,25.7071,VALID,45,VALID,0,
2011-09-15, 00:56:04,VALID,1003.52,VALID,0,INVALID,163.639,VALID,0,VALID,25.7071,VALID,24,VALID,0,
2011-09-15, 00:57:04,VALID,1003.53,VALID,0,INVALID,163.647,VALID,0,VALID,25.748,VALID,26,VALID,0,
2011-09-15, 00:58:04,VALID,1003.53,VALID,0,INVALID,163.639,VALID,0,VALID,25.7265,VALID,11,VALID,0,
2011-09-15, 00:59:04,VALID,1003.54,VALID,0,INVALID,163.655,VALID,0,VALID,25.7265,VALID,46,VALID,0,
2011-09-15, 01:00:04,VALID,1003.53,VALID,0,INVALID,163.655,VALID,0,VALID,25.7265,VALID,20,VALID,0,
2011-09-15, 01:01:04,VALID,1003.48,VALID,0,INVALID,163.632,VALID,0,VALID,25.8064,VALID,15,VALID,0,
2011-09-15, 01:02:04,VALID,1003.5,VALID,0,INVALID,163.639,VALID,0,VALID,25.8434,VALID,8,VALID,0,
2011-09-15, 01:03:04,VALID,1003.46,VALID,0,INVALID,163.609,VALID,0,VALID,25.8648,VALID,27,VALID,0,
2011-09-15, 01:04:04,VALID,1003.44,VALID,0,INVALID,163.624,VALID,0,VALID,25.8453,VALID,29,VALID,0,
2011-09-15, 01:05:04,VALID,1003.41,VALID,0,INVALID,163.639,VALID,0,VALID,25.8044,VALID,22,VALID,0,
2011-09-15, 01:06:04,VALID,1003.4,VALID,0,INVALID,163.609,VALID,0,VALID,25.8278,VALID,29,VALID,0,
2011-09-15, 01:07:04,VALID,1003.4,VALID,0,INVALID,163.647,VALID,0,VALID,25.8064,VALID,23,VALID,0,
2011-09-15, 01:08:04,VALID,1003.38,VALID,0,INVALID,163.632,VALID,0,VALID,25.7655,VALID,20,VALID,0,
2011-09-15, 01:09:04,VALID,1003.37,VALID,0,INVALID,163.617,VALID,0,VALID,25.7869,VALID,18,VALID,0,
2011-09-15, 01:10:04,VALID,1003.4,VALID,0,INVALID,163.662,VALID,0,VALID,25.7869,VALID,18,VALID,0,
2011-09-15, 01:11:04,VALID,1003.41,VALID,0,INVALID,163.662,VALID,0,VALID,25.748,VALID,8,VALID,0,
2011-09-15, 01:12:04,VALID,1003.43,VALID,0,INVALID,163.632,VALID,0,VALID,25.748,VALID,31,VALID,0,
2011-09-15, 01:13:04,VALID,1003.46,VALID,0,INVALID,163.647,VALID,0,VALID,25.7265,VALID,26,VALID,0,
2011-09-15, 01:14:04,VALID,1003.51,VALID,0,INVALID,163.632,VALID,0,VALID,25.748,VALID,27,VALID,0,
2011-09-15, 01:15:04,VALID,1003.57,VALID,0,INVALID,163.639,VALID,0,VALID,25.748,VALID,30,VALID,0,
2011-09-15, 01:16:04,VALID,1003.6,VALID,0,INVALID,163.647,VALID,0,VALID,25.7674,VALID,355,VALID,0,
2011-09-15, 01:17:04,VALID,1003.59,VALID,0,INVALID,163.639,VALID,0,VALID,25.7674,VALID,51,VALID,0,
2011-09-15, 01:18:04,VALID,1003.61,VALID,0,INVALID,163.639,VALID,0,VALID,25.8259,VALID,29,VALID,0,
2011-09-15, 01:19:04,VALID,1003.59,VALID,0,INVALID,163.639,VALID,0,VALID,25.8648,VALID,33,VALID,0,
2011-09-15, 01:20:04,VALID,1003.61,VALID,0,INVALID,163.67,VALID,0,VALID,25.8648,VALID,51,VALID,0,
2011-09-15, 01:21:04,VALID,1003.52,VALID,0,INVALID,163.662,VALID,0,VALID,25.8239,VALID,17,VALID,0,
2011-09-15, 01:22:04,VALID,1003.53,VALID,0,INVALID,163.639,VALID,0,VALID,25.8843,VALID,32,VALID,0,
2011-09-15, 01:23:04,VALID,1003.55,VALID,0,INVALID,163.632,VALID,0,VALID,25.8629,VALID,43,VALID,0,
2011-09-15, 01:24:04,VALID,1003.55,VALID,0,INVALID,163.632,VALID,0,VALID,25.8843,VALID,14,VALID,0,
2011-09-15, 01:25:04,VALID,1003.56,VALID,0,INVALID,163.647,VALID,0,VALID,25.8823,VALID,73,VALID,0,
2011-09-15, 01:26:04,VALID,1003.56,VALID,0,INVALID,163.639,VALID,0,VALID,25.9038,VALID,50,VALID,0,
2011-09-15, 01:27:04,VALID,1003.56,VALID,0,INVALID,163.632,VALID,0,VALID,25.8648,VALID,36,VALID,0,
2011-09-15, 01:28:04,VALID,1003.62,VALID,0,INVALID,163.639,VALID,0,VALID,25.8473,VALID,35,VALID,0,
2011-09-15, 01:29:04,VALID,1003.62,VALID,0,INVALID,163.601,VALID,0,VALID,25.8083,VALID,53,VALID,0,
2011-09-15, 01:30:04,VALID,1003.61,VALID,0,INVALID,163.647,VALID,0,VALID,25.7674,VALID,347,VALID,0,
2011-09-15, 01:31:04,VALID,1003.65,VALID,0,INVALID,163.624,VALID,0,VALID,25.7285,VALID,34,VALID,0,
2011-09-15, 01:32:04,VALID,1003.63,VALID,0,INVALID,163.639,VALID,0,VALID,25.7285,VALID,357,VALID,0,
2011-09-15, 01:33:04,VALID,1003.66,VALID,0,INVALID,163.647,VALID,0,VALID,25.6895,VALID,9,VALID,0,
2011-09-15, 01:34:04,VALID,1003.62,VALID,0,INVALID,163.662,VALID,0,VALID,25.6506,VALID,14,VALID,0,
2011-09-15, 01:35:04,VALID,1003.64,VALID,0,INVALID,163.647,VALID,0,VALID,25.6116,VALID,52,VALID,0,
2011-09-15, 01:36:04,VALID,1003.59,VALID,0,INVALID,163.639,VALID,0,VALID,25.6116,VALID,28,VALID,0,
2011-09-15, 01:37:04,VALID,1003.56,VALID,0,INVALID,163.647,VALID,0,VALID,25.6116,VALID,25,VALID,0,
2011-09-15, 01:38:04,VALID,1003.48,VALID,0,INVALID,163.632,VALID,0,VALID,25.6311,VALID,42,VALID,0,
2011-09-15, 01:39:04,VALID,1003.48,VALID,0,INVALID,163.624,VALID,0,VALID,25.6895,VALID,23,VALID,0,
2011-09-15, 01:40:04,VALID,1003.43,VALID,0,INVALID,163.678,VALID,0,VALID,25.67,VALID,358,VALID,0,
2011-09-15, 01:41:04,VALID,1003.41,VALID,0,INVALID,163.647,VALID,0,VALID,25.709,VALID,358,VALID,0,
2011-09-15, 01:42:04,VALID,1003.44,VALID,0,INVALID,163.647,VALID,0,VALID,25.748,VALID,30,VALID,0,
2011-09-15, 01:43:04,VALID,1003.43,VALID,0,INVALID,163.647,VALID,0,VALID,25.7674,VALID,360,VALID,0,
2011-09-15, 01:44:04,VALID,1003.45,VALID,0,INVALID,163.632,VALID,0,VALID,25.8064,VALID,20,VALID,0,
2011-09-15, 01:45:04,VALID,1003.43,VALID,0,INVALID,163.632,VALID,0,VALID,25.8648,VALID,21,VALID,0,
2011-09-15, 01:46:04,VALID,1003.4,VALID,0,INVALID,163.655,VALID,0,VALID,25.8434,VALID,18,VALID,0,
2011-09-15, 01:47:04,VALID,1003.36,VALID,0,INVALID,163.632,VALID,0,VALID,25.8453,VALID,23,VALID,0,
2011-09-15, 01:48:04,VALID,1003.34,VALID,0,INVALID,163.617,VALID,0,VALID,25.8648,VALID,23,VALID,0,
2011-09-15, 01:49:04,VALID,1003.31,VALID,0,INVALID,163.655,VALID,0,VALID,25.9252,VALID,13,VALID,0,
2011-09-15, 01:50:04,VALID,1003.3,VALID,0,INVALID,163.662,VALID,0,VALID,25.9622,VALID,28,VALID,0,
2011-09-15, 01:51:04,VALID,1003.28,VALID,0,INVALID,163.647,VALID,0,VALID,25.9622,VALID,35,VALID,0,
2011-09-15, 01:52:04,VALID,1003.3,VALID,0,INVALID,163.601,VALID,0,VALID,25.9992,VALID,16,VALID,0,
2011-09-15, 01:53:04,VALID,1003.27,VALID,0,INVALID,163.624,VALID,0,VALID,26.0187,VALID,69,VALID,0,
2011-09-15, 01:54:04,VALID,1003.28,VALID,0,INVALID,163.617,VALID,0,VALID,26.0596,VALID,59,VALID,0,
2011-09-15, 01:55:04,VALID,1003.24,VALID,0,INVALID,163.617,VALID,0,VALID,26.0791,VALID,16,VALID,0,
2011-09-15, 01:56:04,VALID,1003.26,VALID,0,INVALID,163.609,VALID,0,VALID,26.118,VALID,26,VALID,0,
2011-09-15, 01:57:04,VALID,1003.29,VALID,0,INVALID,163.609,VALID,0,VALID,26.1375,VALID,4,VALID,0,
2011-09-15, 01:58:04,VALID,1003.31,VALID,0,INVALID,163.609,VALID,0,VALID,26.1959,VALID,21,VALID,0,
2011-09-15, 01:59:04,VALID,1003.34,VALID,0,INVALID,163.617,VALID,0,VALID,26.194,VALID,81,VALID,0,
2011-09-15, 02:00:04,VALID,1003.37,VALID,0,INVALID,163.594,VALID,0,VALID,26.2329,VALID,47,VALID,0,
2011-09-15, 02:01:04,VALID,1003.41,VALID,0,INVALID,163.586,VALID,0,VALID,26.2739,VALID,110,VALID,0,
2011-09-15, 02:02:04,VALID,1003.45,VALID,0,INVALID,163.586,VALID,0,VALID,26.2544,VALID,29,VALID,0,
2011-09-15, 02:03:04,VALID,1003.5,VALID,0,INVALID,163.601,VALID,0,VALID,26.2329,VALID,79,VALID,0,
2011-09-15, 02:04:04,VALID,1003.57,VALID,0,INVALID,163.601,VALID,0,VALID,26.3518,VALID,35,VALID,0,
2011-09-15, 02:05:04,VALID,1003.58,VALID,0,INVALID,163.594,VALID,0,VALID,26.3887,VALID,93,VALID,0,
2011-09-15, 02:06:04,VALID,1003.61,VALID,0,INVALID,163.594,VALID,0,VALID,26.4492,VALID,87,VALID,0,
2011-09-15, 02:07:04,VALID,1003.61,VALID,0,INVALID,163.594,VALID,0,VALID,26.3907,VALID,110,VALID,0,
2011-09-15, 02:08:04,VALID,1003.63,VALID,0,INVALID,163.617,VALID,0,VALID,26.4082,VALID,91,VALID,0,
2011-09-15, 02:09:04,VALID,1003.63,VALID,0,INVALID,163.594,VALID,0,VALID,26.4492,VALID,73,VALID,0,
2011-09-15, 02:10:04,VALID,1003.62,VALID,0,INVALID,163.594,VALID,0,VALID,26.4492,VALID,84,VALID,0,
2011-09-15, 02:11:04,VALID,1003.62,VALID,0,INVALID,163.571,VALID,0,VALID,26.4492,VALID,92,VALID,0,
2011-09-15, 02:12:04,VALID,1003.63,VALID,0,INVALID,163.586,VALID,0,VALID,26.4082,VALID,95,VALID,0,
2011-09-15, 02:13:04,VALID,1003.68,VALID,0,INVALID,163.586,VALID,0,VALID,26.4297,VALID,136,VALID,0,
2011-09-15, 02:14:04,VALID,1003.71,VALID,0,INVALID,163.617,VALID,0,VALID,26.4082,VALID,114,VALID,0,
2011-09-15, 02:15:04,VALID,1003.78,VALID,0,INVALID,163.586,VALID,0,VALID,26.4102,VALID,86,VALID,0,
2011-09-15, 02:16:04,VALID,1003.8,VALID,0,INVALID,163.601,VALID,0,VALID,26.3907,VALID,58,VALID,0,
2011-09-15, 02:17:04,VALID,1003.85,VALID,0,INVALID,163.578,VALID,0,VALID,26.3518,VALID,99,VALID,0,
2011-09-15, 02:18:04,VALID,1003.87,VALID,0,INVALID,163.601,VALID,0,VALID,26.3108,VALID,45,VALID,0,
2011-09-15, 02:19:04,VALID,1003.93,VALID,0,INVALID,163.586,VALID,0,VALID,26.3128,VALID,45,VALID,0,
2011-09-15, 02:20:04,VALID,1003.93,VALID,0,INVALID,163.609,VALID,0,VALID,26.2524,VALID,50,VALID,0,
2011-09-15, 02:21:04,VALID,1003.98,VALID,0,INVALID,163.617,VALID,0,VALID,26.2134,VALID,81,VALID,0,
2011-09-15, 02:22:04,VALID,1004.03,VALID,0,INVALID,163.601,VALID,0,VALID,26.2349,VALID,22,VALID,0,
2011-09-15, 02:23:04,VALID,1004.04,VALID,0,INVALID,163.578,VALID,0,VALID,26.1745,VALID,89,VALID,0,
2011-09-15, 02:24:04,VALID,1004.03,VALID,0,INVALID,163.617,VALID,0,VALID,26.2134,VALID,100,VALID,0,
2011-09-15, 02:25:04,VALID,1004.08,VALID,0,INVALID,163.594,VALID,0,VALID,26.2349,VALID,33,VALID,0,
2011-09-15, 02:26:04,VALID,1004.09,VALID,0,INVALID,163.632,VALID,0,VALID,26.1959,VALID,27,VALID,0,
2011-09-15, 02:27:04,VALID,1004.07,VALID,0,INVALID,163.609,VALID,0,VALID,26.1375,VALID,37,VALID,0,
2011-09-15, 02:28:04,VALID,1004.02,VALID,0,INVALID,163.617,VALID,0,VALID,26.116,VALID,37,VALID,0,
2011-09-15, 02:29:04,VALID,1004.02,VALID,0,INVALID,163.617,VALID,0,VALID,26.0985,VALID,35,VALID,0,
2011-09-15, 02:30:04,VALID,1003.94,VALID,0,INVALID,163.655,VALID,0,VALID,26.118,VALID,4,VALID,0,
2011-09-15, 02:31:04,VALID,1003.91,VALID,0,INVALID,163.632,VALID,0,VALID,26.0985,VALID,349,VALID,0,
2011-09-15, 02:32:04,VALID,1003.92,VALID,0,INVALID,163.624,VALID,0,VALID,26.0596,VALID,348,VALID,0,
2011-09-15, 02:33:04,VALID,1003.92,VALID,0,INVALID,163.632,VALID,0,VALID,26.0381,VALID,348,VALID,0,
2011-09-15, 02:34:04,VALID,1003.91,VALID,0,INVALID,163.624,VALID,0,VALID,26.0206,VALID,348,VALID,0,
2011-09-15, 02:35:04,VALID,1003.91,VALID,0,INVALID,163.624,VALID,0,VALID,25.9992,VALID,348,VALID,0,
2011-09-15, 02:36:04,VALID,1003.9,VALID,0,INVALID,163.632,VALID,0,VALID,25.9797,VALID,348,VALID,0,
2011-09-15, 02:37:04,VALID,1003.91,VALID,0,INVALID,163.624,VALID,0,VALID,25.9408,VALID,348,VALID,0,
2011-09-15, 02:38:04,VALID,1003.91,VALID,0,INVALID,163.624,VALID,0,VALID,25.9408,VALID,348,VALID,0,
2011-09-15, 02:39:04,VALID,1003.9,VALID,0,INVALID,163.647,VALID,0,VALID,25.9232,VALID,213,VALID,0,
2011-09-15, 02:40:04,VALID,1003.92,VALID,0,INVALID,163.617,VALID,0,VALID,25.8843,VALID,191,VALID,0,
2011-09-15, 02:41:04,VALID,1003.91,VALID,0,INVALID,163.639,VALID,0,VALID,25.9038,VALID,150,VALID,0,
2011-09-15, 02:42:04,VALID,1003.86,VALID,0,INVALID,163.647,VALID,0,VALID,25.9602,VALID,115,VALID,0,
2011-09-15, 02:43:04,VALID,1003.9,VALID,0,INVALID,163.609,VALID,0,VALID,26.0206,VALID,113,VALID,0,
2011-09-15, 02:44:04,VALID,1003.89,VALID,0,INVALID,163.632,VALID,0,VALID,26.0596,VALID,115,VALID,0,
2011-09-15, 02:45:04,VALID,1003.86,VALID,0,INVALID,163.617,VALID,0,VALID,26.0206,VALID,132,VALID,0,
2011-09-15, 02:46:04,VALID,1003.78,VALID,0,INVALID,163.617,VALID,0,VALID,25.9602,VALID,146,VALID,0,
2011-09-15, 02:47:04,VALID,1003.75,VALID,0,INVALID,163.632,VALID,0,VALID,25.9427,VALID,128,VALID,0,
2011-09-15, 02:48:04,VALID,1003.67,VALID,0,INVALID,163.632,VALID,0.100563,VALID,25.9213,VALID,150,VALID,0,
2011-09-15, 02:49:04,VALID,1003.63,VALID,0,INVALID,163.624,VALID,0,VALID,25.9232,VALID,99,VALID,0,
2011-09-15, 02:50:04,VALID,1003.61,VALID,0,INVALID,163.632,VALID,0,VALID,25.8843,VALID,106,VALID,0,
2011-09-15, 02:51:04,VALID,1003.57,VALID,0,INVALID,163.617,VALID,0.100563,VALID,25.8044,VALID,119,VALID,0,
2011-09-15, 02:52:04,VALID,1003.53,VALID,0,INVALID,163.647,VALID,0,VALID,25.746,VALID,119,VALID,0,
2011-09-15, 02:53:04,VALID,1003.5,VALID,0,INVALID,163.617,VALID,0,VALID,25.7285,VALID,81,VALID,0,
2011-09-15, 02:54:04,VALID,1003.49,VALID,0,INVALID,163.647,VALID,0,VALID,25.6292,VALID,106,VALID,0,
2011-09-15, 02:55:04,VALID,1003.44,VALID,0,INVALID,163.639,VALID,0,VALID,25.5513,VALID,119,VALID,0,
2011-09-15, 02:56:04,VALID,1003.41,VALID,0,INVALID,163.678,VALID,0,VALID,25.4734,VALID,118,VALID,0,
2011-09-15, 02:57:04,VALID,1003.34,VALID,0,INVALID,163.67,VALID,0,VALID,25.4363,VALID,125,VALID,0,
2011-09-15, 02:58:04,VALID,1003.32,VALID,0,INVALID,163.662,VALID,0,VALID,25.376,VALID,128,VALID,0,
2011-09-15, 02:59:04,VALID,1003.31,VALID,0,INVALID,163.678,VALID,0,VALID,25.337,VALID,112,VALID,0,
2011-09-15, 03:00:04,VALID,1003.3,VALID,0,INVALID,163.67,VALID,0,VALID,25.2786,VALID,116,VALID,0,
2011-09-15, 03:01:04,VALID,1003.34,VALID,0,INVALID,163.655,VALID,0,VALID,25.2397,VALID,107,VALID,0,
2011-09-15, 03:02:04,VALID,1003.33,VALID,0,INVALID,163.678,VALID,0,VALID,25.2221,VALID,108,VALID,0,
2011-09-15, 03:03:04,VALID,1003.32,VALID,0,INVALID,163.678,VALID,0,VALID,25.1832,VALID,89,VALID,0,
2011-09-15, 03:04:04,VALID,1003.3,VALID,0,INVALID,163.708,VALID,0,VALID,25.1637,VALID,73,VALID,0,
2011-09-15, 03:05:04,VALID,1003.29,VALID,0,INVALID,163.685,VALID,0,VALID,25.1248,VALID,100,VALID,0,
2011-09-15, 03:06:04,VALID,1003.31,VALID,0,INVALID,163.685,VALID,0,VALID,25.1248,VALID,44,VALID,0,
2011-09-15, 03:07:04,VALID,1003.25,VALID,0,INVALID,163.685,VALID,0,VALID,25.1053,VALID,93,VALID,0,
2011-09-15, 03:08:04,VALID,1003.26,VALID,0,INVALID,163.701,VALID,0,VALID,25.0858,VALID,68,VALID,0,
2011-09-15, 03:09:04,VALID,1003.23,VALID,0,INVALID,163.701,VALID,0,VALID,25.0663,VALID,103,VALID,0,
2011-09-15, 03:10:04,VALID,1003.25,VALID,0,INVALID,163.678,VALID,0,VALID,25.0663,VALID,93,VALID,0,
2011-09-15, 03:11:04,VALID,1003.25,VALID,0,INVALID,163.693,VALID,0,VALID,25.0682,VALID,122,VALID,0,
2011-09-15, 03:12:04,VALID,1003.27,VALID,0,INVALID,163.708,VALID,0,VALID,25.006,VALID,104,VALID,0,
2011-09-15, 03:13:04,VALID,1003.27,VALID,0,INVALID,163.693,VALID,0,VALID,25.0663,VALID,112,VALID,0,
2011-09-15, 03:14:04,VALID,1003.25,VALID,0,INVALID,163.708,VALID,0,VALID,25.0858,VALID,108,VALID,0,
2011-09-15, 03:15:04,VALID,1003.26,VALID,0,INVALID,163.693,VALID,0,VALID,25.1053,VALID,94,VALID,0,
2011-09-15, 03:16:04,VALID,1003.25,VALID,0,INVALID,163.693,VALID,0,VALID,25.1248,VALID,77,VALID,0,
2011-09-15, 03:17:04,VALID,1003.28,VALID,0,INVALID,163.701,VALID,0,VALID,25.1442,VALID,111,VALID,0,
2011-09-15, 03:18:04,VALID,1003.3,VALID,0,INVALID,163.701,VALID,0,VALID,25.1229,VALID,95,VALID,0,
2011-09-15, 03:19:04,VALID,1003.29,VALID,0,INVALID,163.685,VALID,0,VALID,25.1034,VALID,104,VALID,0,
2011-09-15, 03:20:04,VALID,1003.28,VALID,0,INVALID,163.701,VALID,0,VALID,25.1442,VALID,95,VALID,0,
2011-09-15, 03:21:04,VALID,1003.28,VALID,0,INVALID,163.708,VALID,0,VALID,25.0839,VALID,111,VALID,0,
2011-09-15, 03:22:04,VALID,1003.26,VALID,0,INVALID,163.693,VALID,0,VALID,25.045,VALID,75,VALID,0,
2011-09-15, 03:23:04,VALID,1003.28,VALID,0,INVALID,163.708,VALID,0,VALID,25.1053,VALID,94,VALID,0,
2011-09-15, 03:24:04,VALID,1003.27,VALID,0,INVALID,163.693,VALID,0,VALID,25.1637,VALID,81,VALID,0,
2011-09-15, 03:25:04,VALID,1003.26,VALID,0,INVALID,163.662,VALID,0,VALID,25.224,VALID,111,VALID,0,
2011-09-15, 03:26:04,VALID,1003.22,VALID,0,INVALID,163.693,VALID,0,VALID,25.1832,VALID,96,VALID,0,
2011-09-15, 03:27:04,VALID,1003.21,VALID,0,INVALID,163.678,VALID,0,VALID,25.1832,VALID,81,VALID,0,
2011-09-15, 03:28:04,VALID,1003.19,VALID,0,INVALID,163.685,VALID,0,VALID,25.1423,VALID,97,VALID,0,
2011-09-15, 03:29:04,VALID,1003.22,VALID,0,INVALID,163.701,VALID,0,VALID,25.1813,VALID,49,VALID,0,
2011-09-15, 03:30:04,VALID,1003.16,VALID,0,INVALID,163.67,VALID,0,VALID,25.2416,VALID,80,VALID,0,
2011-09-15, 03:31:04,VALID,1003.14,VALID,0,INVALID,163.685,VALID,0,VALID,25.2416,VALID,69,VALID,0,
2011-09-15, 03:32:04,VALID,1003.14,VALID,0,INVALID,163.685,VALID,0,VALID,25.2007,VALID,77,VALID,0,
2011-09-15, 03:33:04,VALID,1003.14,VALID,0,INVALID,163.701,VALID,0,VALID,25.1813,VALID,77,VALID,0,
2011-09-15, 03:34:04,VALID,1003.15,VALID,0,INVALID,163.685,VALID,0,VALID,25.2221,VALID,92,VALID,0,
2011-09-15, 03:35:04,VALID,1003.17,VALID,0,INVALID,163.67,VALID,0,VALID,25.2007,VALID,92,VALID,0,
2011-09-15, 03:36:04,VALID,1003.19,VALID,0,INVALID,163.693,VALID,0,VALID,25.2007,VALID,107,VALID,0,
2011-09-15, 03:37:04,VALID,1003.18,VALID,0,INVALID,163.67,VALID,0,VALID,25.2221,VALID,107,VALID,0,
2011-09-15, 03:38:04,VALID,1003.22,VALID,0,INVALID,163.67,VALID,0,VALID,25.2221,VALID,107,VALID,0,
2011-09-15, 03:39:04,VALID,1003.28,VALID,0,INVALID,163.685,VALID,0,VALID,25.2027,VALID,126,VALID,0,
2011-09-15, 03:40:04,VALID,1003.29,VALID,0,INVALID,163.685,VALID,0,VALID,25.2221,VALID,128,VALID,0,
2011-09-15, 03:41:04,VALID,1003.32,VALID,0,INVALID,163.678,VALID,0,VALID,25.1618,VALID,118,VALID,0,
2011-09-15, 03:42:04,VALID,1003.36,VALID,0,INVALID,163.685,VALID,0,VALID,25.1656,VALID,107,VALID,0,
2011-09-15, 03:43:04,VALID,1003.41,VALID,0,INVALID,163.708,VALID,0,VALID,25.1034,VALID,106,VALID,0,
2011-09-15, 03:44:04,VALID,1003.43,VALID,0,INVALID,163.678,VALID,0,VALID,25.0644,VALID,106,VALID,0,
2011-09-15, 03:45:04,VALID,1003.5,VALID,0,INVALID,163.693,VALID,0,VALID,25.0236,VALID,106,VALID,0,
2011-09-15, 03:46:04,VALID,1003.55,VALID,0,INVALID,163.693,VALID,0,VALID,25.0079,VALID,106,VALID,0,
2011-09-15, 03:47:04,VALID,1003.62,VALID,0,INVALID,163.701,VALID,0,VALID,24.9282,VALID,106,VALID,0,
2011-09-15, 03:48:04,VALID,1003.67,VALID,0,INVALID,163.685,VALID,0,VALID,24.8892,VALID,106,VALID,0,
2011-09-15, 03:49:04,VALID,1003.69,VALID,0,INVALID,163.701,VALID,0,VALID,24.9106,VALID,106,VALID,0,
2011-09-15, 03:50:04,VALID,1003.69,VALID,0,INVALID,163.685,VALID,0,VALID,24.8308,VALID,106,VALID,0,
2011-09-15, 03:51:04,VALID,1003.73,VALID,0,INVALID,163.701,VALID,0,VALID,24.8327,VALID,108,VALID,0,
2011-09-15, 03:52:04,VALID,1003.74,VALID,0,INVALID,163.708,VALID,0,VALID,24.7919,VALID,108,VALID,0,
2011-09-15, 03:53:04,VALID,1003.74,VALID,0,INVALID,163.693,VALID,0,VALID,24.8308,VALID,108,VALID,0,
2011-09-15, 03:54:04,VALID,1003.77,VALID,0,INVALID,163.701,VALID,0,VALID,24.8735,VALID,63,VALID,0,
2011-09-15, 03:55:04,VALID,1003.76,VALID,0,INVALID,163.693,VALID,0,VALID,24.8308,VALID,351,VALID,0,